World > North America > United States > Illinois

Hopewell, Illinois Regional Weather

Lat: 40.98N, Lon: 89.46W
Wx Zone: ILZ030Web Search
Hopewell Weather Warning NWS WEATHER ALERT FOR THE HOPEWELL, IL AREA - Issued: 1136 AM CDT Sun May 9 2021 Hopewell Weather Warning  

Our weather pages are very print friendly and they make great conversation starters.

Feedback


°F Click to change Hopewell hourly weather to Imperial units.Click to change Hopewell hourly weather to Metric units. °C
Hopewell Weather Map
UTC Time: 5/9/2021, 16:43
Your Time:

Hopewell, IL Regional Weather

Expires:202105091700;;846531
ASUS43 KLOT 091609
RWRIL 

ILLINOIS REGIONAL WEATHER ROUNDUP
NATIONAL WEATHER SERVICE CHICAGO/ROMEOVILLE IL
1100 AM CDT SUN MAY 09 2021

NOTE: "FAIR" INDICATES FEW OR NO CLOUDS BELOW 12,000 FEET WITH NO
SIGNIFICANT WEATHER AND/OR OBSTRUCTIONS TO VISIBILITY.

* THESE STATIONS ARE NOT UNDER NWS QUALITY CONTROL. THEY ALSO MAY NOT
  REPORT WEATHER SUCH AS PRECIPITATION OR FOG.


ILZ028>032-037-038-041>044-048-051>054-059>061-091700-
CENTRAL ILLINOIS
  
CITY           SKY/WX    TMP DP  RH WIND       PRES   REMARKS
PONTIAC        CLOUDY    41  40  99 NE28G33   29.84R                  
BLOOMINGTON    CLOUDY    41  40  96 N23G33    29.79R                  
DECATUR        CLOUDY    46  45  96 N15G24    29.75R                  
PEORIA         CLOUDY    43  38  82 NE18G35   29.85R                  
LACON*         CLOUDY    42  39  88 NE9G18    29.88R                  
LINCOLN*       CLOUDY    44  41  88 N17G26    29.82R                  
SPRINGFIELD    CLOUDY    45  43  93 N17G31    29.81R                  
TAYLORVILLE    CLOUDY    45  45 100 NE18G24   29.77R                  
$$


SKY/WX - Weather  TMP - Temperature  DP - Dew Point  RH - Relative Humidity
WIND - Wind Direction/Speed PRES - Barometric Pressure VSB - Visibility
WCI - Wind Chill Index E13G22 Wind - East Wind 13 mph/Gusts of 22 mph